Tracking 28126 objects as of 1-Oct-2023
HD Live streaming from Space Station
objects crossing your sky now

COSMOS 1823 DEB

Track COSMOS 1823 DEB now!
10-day predictions


NORAD ID: 18800
Int'l Code: 1987-020AL
Perigee: 1,476.2 km
Apogee: 1,560.5 km
Inclination: 73.6 °
Period: 116.2 minutes
Semi major axis: 7889 km
RCS: 0.043 m2 (small)
Launch date: February 20, 1987
Source: Commonwealth of Independent States (former USSR) (CIS)
Launch site: PLESETSK MISSILE AND SPACE COMPLEX (PKMTR)

Note: This is SATELLITE DEBRIS
Your satellite tracking list
Your tracking list is empty




NASA's NSSDC Master Catalog

Two Line Element Set (TLE):
1 18800U 87020AL  23274.52082414  .00000001  00000-0  13626-3 0  9990
2 18800  73.5962   9.5743 0053429 337.5057  36.3860 12.38908609618324
Source of the keplerian elements: AFSPC